DeKalb, IL

10:50 AM CDT on August 19, 2017 (GMT -0500)
De Kalb Taylor Municipal

Weather History for KDKB - December, 2011

Change the Weather History Date:

Tuesday, December 20, 2011

  Actual Average (KARR) Record (KARR)
Temperature  
Mean Temperature 36 °F -  
Max Temperature 39 °F 29 °F 51 °F (2015)
Min Temperature 32 °F 14 °F -11 °F (2000)
Degree Days  
Heating Degree Days 30    
Moisture  
Dew Point 30 °F    
Average Humidity 78    
Maximum Humidity 87    
Minimum Humidity 68    
Precipitation  
Precipitation 0.01 in - - ()
Sea Level Pressure  
Sea Level Pressure 30.00 in    
Wind  
Wind Speed 7 mph (ENE)    
Max Wind Speed 10 mph    
Max Gust Speed -    
Visibility 8 miles    
Events Rain    
Averages and records for this station are not official NWS values.
T = Trace of Precipitation, MM = Missing Value Source: NWS Daily Summary

Daily Weather History Graph

Daily Weather History Graph

Search for Another Location

Airport or City:

Trip Planner

Search our weather history database for the weather conditions in past years. The results will help you decide how hot, cold, wet, or windy it might be!

Date:

Astronomy

Dec. 20, 2011 Rise Set
Actual Time 7:18 AM CST 4:26 PM CST
Civil Twilight 6:46 AM CST 4:57 PM CST
Nautical Twilight 6:11 AM CST 5:33 PM CST
Astronomical Twilight 5:37 AM CST 6:07 PM CST
Moon 2:37 AM CST (12/20) 1:03 PM CST (12/20)
Length of Visible Light 10h 10m
Length of Day
9h 07m
Waning Crescent, 21% of the Moon is Illuminated
Dec 20
Waning Crescent
Dec 24
New
Jan 1
First Quarter
Jan 9
Full
Jan 16
Last Quarter

Hourly Weather History & Observations

Time (CST) Temp. Windchill Dew Point Humidity Pressure Visibility Wind Dir Wind Speed Gust Speed Precip Events Conditions
12:15 AM 37.4 °F 30.8 °F 30.2 °F 75% 30.16 in 10.0 mi ENE 9.2 mph - N/A   Overcast
12:35 AM 36.5 °F 30.3 °F 29.7 °F 76% 30.16 in 10.0 mi ENE 8.1 mph - N/A   Scattered Clouds
12:55 AM 35.8 °F 30.1 °F 29.3 °F 77% 30.16 in 10.0 mi ENE 6.9 mph - N/A   Clear
1:15 AM 35.6 °F 29.9 °F 29.1 °F 77% 30.16 in 10.0 mi NE 6.9 mph - N/A   Clear
1:35 AM 34.7 °F 28.8 °F 28.8 °F 79% 30.16 in 10.0 mi NE 6.9 mph - N/A   Clear
1:55 AM 33.8 °F 28.6 °F 28.4 °F 81% 30.16 in 10.0 mi NE 5.8 mph - N/A   Scattered Clouds
2:15 AM 33.4 °F 27.3 °F 27.7 °F 79% 30.16 in 10.0 mi NE 6.9 mph - N/A   Scattered Clouds
2:35 AM 32.9 °F 25.9 °F 27.3 °F 80% 30.16 in 10.0 mi NE 8.1 mph - N/A   Clear
2:55 AM 32.9 °F 25.9 °F 27.1 °F 79% 30.15 in 10.0 mi NE 8.1 mph - N/A   Clear
3:15 AM 34.0 °F 28.8 °F 27.3 °F 77% 30.15 in 10.0 mi NE 5.8 mph - N/A   Clear
3:35 AM 33.8 °F 28.6 °F 27.5 °F 78% 30.15 in 10.0 mi NE 5.8 mph - N/A   Scattered Clouds
3:55 AM 33.8 °F 29.6 °F 27.5 °F 78% 30.15 in 10.0 mi NE 4.6 mph - N/A   Mostly Cloudy
4:15 AM 33.8 °F 28.6 °F 27.3 °F 77% 30.14 in 10.0 mi NNE 5.8 mph - N/A   Overcast
4:55 AM 33.8 °F 28.6 °F 27.5 °F 78% 30.14 in 10.0 mi NNE 5.8 mph - N/A   Overcast
5:15 AM 33.8 °F 29.6 °F 27.5 °F 78% 30.14 in 10.0 mi NE 4.6 mph - N/A   Overcast
5:35 AM 33.4 °F 30.4 °F 27.5 °F 79% 30.13 in 10.0 mi NE 3.5 mph - N/A   Overcast
5:55 AM 33.8 °F 29.6 °F 28.4 °F 81% 30.13 in 10.0 mi ENE 4.6 mph - N/A   Overcast
6:15 AM 34.2 °F 30.0 °F 27.9 °F 78% 30.12 in 10.0 mi ENE 4.6 mph - N/A   Overcast
6:35 AM 33.8 °F 28.6 °F 28.4 °F 81% 30.11 in 10.0 mi ENE 5.8 mph - N/A   Overcast
6:55 AM 34.2 °F 29.0 °F 28.0 °F 78% 30.11 in 10.0 mi ENE 5.8 mph - N/A   Overcast
7:15 AM 34.2 °F 29.0 °F 28.2 °F 79% 30.10 in 10.0 mi NE 5.8 mph - N/A   Overcast
7:35 AM 34.2 °F 28.2 °F 28.4 °F 79% 30.09 in 10.0 mi ENE 6.9 mph - N/A   Mostly Cloudy
7:55 AM 34.3 °F 28.4 °F 28.4 °F 79% 30.08 in 10.0 mi East 6.9 mph - N/A   Scattered Clouds
8:15 AM 35.1 °F 30.1 °F 28.9 °F 78% 30.08 in 10.0 mi ENE 5.8 mph - N/A   Clear
8:35 AM 35.2 °F 31.2 °F 29.1 °F 78% 30.09 in 10.0 mi East 4.6 mph - N/A   Clear
9:15 AM 36.1 °F 30.6 °F 29.5 °F 77% 30.08 in 10.0 mi ENE 6.9 mph - N/A   Clear
9:35 AM 36.5 °F 31.0 °F 29.5 °F 76% 30.07 in 10.0 mi East 6.9 mph - N/A   Clear
9:55 AM 37.6 °F 31.0 °F 30.2 °F 75% 30.07 in 10.0 mi East 9.2 mph - N/A   Clear
10:15 AM 37.6 °F 30.5 °F 29.7 °F 73% 30.06 in 10.0 mi ESE 10.4 mph - N/A   Clear
10:35 AM 38.3 °F 31.9 °F 29.7 °F 71% 30.06 in 10.0 mi ESE 9.2 mph - N/A   Clear
10:55 AM 38.7 °F 32.9 °F 29.8 °F 71% 30.05 in 10.0 mi ESE 8.1 mph - N/A   Clear
11:15 AM 38.5 °F 32.1 °F 29.3 °F 70% 30.03 in 10.0 mi ESE 9.2 mph - N/A   Clear
11:35 AM 39.2 °F 33.0 °F 30.2 °F 70% 30.02 in 10.0 mi East 9.2 mph - N/A   Mostly Cloudy
11:55 AM 38.8 °F 33.8 °F 29.5 °F 69% 30.01 in 10.0 mi East 6.9 mph - N/A   Overcast
12:35 PM 38.8 °F 33.2 °F 29.1 °F 68% 29.98 in 10.0 mi ENE 8.1 mph - N/A   Overcast
12:55 PM 38.8 °F 32.6 °F 29.1 °F 68% 29.95 in 10.0 mi ENE 9.2 mph - N/A   Mostly Cloudy
1:15 PM 38.8 °F 33.2 °F 29.3 °F 69% 29.94 in 10.0 mi ENE 8.1 mph - N/A   Scattered Clouds
1:35 PM 39.2 °F 33.6 °F 29.7 °F 69% 29.94 in 10.0 mi East 8.1 mph - N/A   Mostly Cloudy
1:55 PM 38.8 °F 33.8 °F 30.0 °F 71% 29.93 in 10.0 mi East 6.9 mph - N/A   Overcast
2:15 PM 38.8 °F 34.6 °F 30.2 °F 71% 29.93 in 10.0 mi East 5.8 mph - N/A   Overcast
2:35 PM 38.8 °F 34.6 °F 30.7 °F 73% 29.92 in 10.0 mi ENE 5.8 mph - N/A   Overcast
3:15 PM 38.1 °F 34.6 °F 30.9 °F 75% 29.92 in 10.0 mi ENE 4.6 mph - N/A Rain Rain
3:55 PM 37.6 °F 31.6 °F 31.8 °F 80% 29.91 in 10.0 mi NE 8.1 mph - N/A   Overcast
4:15 PM 37.6 °F 31.0 °F 32.0 °F 80% 29.90 in 10.0 mi NE 9.2 mph - N/A   Overcast
4:55 PM 36.7 °F 29.9 °F 31.1 °F 80% 29.88 in 10.0 mi NE 9.2 mph - N/A   Overcast
5:15 PM 36.5 °F 30.3 °F 31.1 °F 81% 29.88 in 10.0 mi NE 8.1 mph - N/A   Overcast
5:35 PM 36.5 °F 29.7 °F 31.1 °F 81% 29.86 in 10.0 mi NE 9.2 mph - N/A   Overcast
6:35 PM 36.5 °F 30.3 °F 31.1 °F 81% 29.85 in 10.0 mi East 8.1 mph - N/A   Overcast
7:35 PM 36.7 °F 30.5 °F 31.8 °F 83% 29.84 in 5.0 mi ESE 8.1 mph - N/A   Haze
7:55 PM 36.5 °F 31.8 °F 32.0 °F 84% 29.84 in 4.0 mi East 5.8 mph - N/A   Haze
8:15 PM 36.5 °F 31.0 °F 32.0 °F 84% 29.83 in 3.0 mi East 6.9 mph - N/A   Haze
8:35 PM 36.7 °F 32.9 °F 32.0 °F 83% 29.83 in 3.0 mi East 4.6 mph - N/A   Haze
8:55 PM 36.5 °F 32.7 °F 32.0 °F 84% 29.82 in 3.0 mi ENE 4.6 mph - N/A   Haze
9:15 PM 36.5 °F 32.7 °F 32.0 °F 84% 29.81 in 2.5 mi NE 4.6 mph - N/A   Haze
9:35 PM 36.7 °F 32.9 °F 32.2 °F 84% 29.79 in 2.0 mi NE 4.6 mph - N/A   Haze
9:55 PM 36.7 °F 32.9 °F 32.2 °F 84% 29.78 in 1.5 mi ENE 4.6 mph - N/A   Haze
10:15 PM 37.4 °F 34.9 °F 32.9 °F 84% 29.78 in 1.2 mi NE 3.5 mph - N/A   Overcast
10:35 PM 37.6 °F 34.0 °F 33.1 °F 84% 29.77 in 1.0 mi ENE 4.6 mph - N/A   Haze
10:55 PM 37.4 °F 33.8 °F 33.8 °F 87% 29.77 in 1.0 mi NNE 4.6 mph - N/A   Haze
11:15 PM 37.6 °F 34.0 °F 33.1 °F 84% 29.76 in 0.8 mi NE 4.6 mph - N/A   Haze
11:35 PM 37.6 °F 33.1 °F 33.1 °F 84% 29.75 in 1.0 mi NE 5.8 mph - 0.01 in   Haze
11:55 PM 37.6 °F 33.1 °F 33.1 °F 84% 29.74 in 1.0 mi NE 5.8 mph - 0.01 in   Haze